St. Francis, KS

12:00 PM CDT on March 29, 2017 (GMT -0500)
Cheyenne County Municipal

Weather History for KSYF - April, 2013

Change the Weather History Date:

Friday, April 26, 2013

  Actual Average Record
Temperature  
Mean Temperature 58 °F -  
Max Temperature 78 °F 70 °F 86 °F (2014)
Min Temperature 37 °F 40 °F 37 °F (2013)
Degree Days  
Heating Degree Days 8    
Growing Degree Days 8 (Base 50)    
Moisture  
Dew Point 23 °F    
Average Humidity 34    
Maximum Humidity 80    
Minimum Humidity 6    
Precipitation  
Precipitation 0.00 in - - ()
Sea Level Pressure  
Sea Level Pressure 30.05 in    
Wind  
Wind Speed 12 mph (NE)    
Max Wind Speed 21 mph    
Max Gust Speed 30 mph    
Visibility 10 miles    
Events      
Averages and records for this station are not official NWS values.
T = Trace of Precipitation, MM = Missing Value Source: NWS Daily Summary

Daily Weather History Graph

Daily Weather History Graph

Search for Another Location

Airport or City:

Trip Planner

Search our weather history database for the weather conditions in past years. The results will help you decide how hot, cold, wet, or windy it might be!

Date:

Astronomy

Apr. 26, 2013 Rise Set
Actual Time 6:53 AM CDT 8:36 PM CDT
Civil Twilight 6:24 AM CDT 9:05 PM CDT
Nautical Twilight 5:50 AM CDT 9:40 PM CDT
Astronomical Twilight 5:13 AM CDT 10:17 PM CDT
Moon 10:01 PM CDT (4/26) 7:22 AM CDT (4/26)
Length of Visible Light 14h 40m
Length of Day
13h 43m
Full, 99% of the Moon is Illuminated
Apr 26
Full
May 2
Last Quarter
May 9
New
May 17
First Quarter
May 24
Full

Hourly Weather History & Observations

Time (CDT) Temp. Windchill Dew Point Humidity Pressure Visibility Wind Dir Wind Speed Gust Speed Precip Events Conditions
12:35 AM 57.2 °F - 41.4 °F 55% 29.94 in 10.0 mi South 17.3 mph 23.0 mph N/A   Clear
12:55 AM 56.3 °F - 41.9 °F 59% 29.95 in 10.0 mi South 17.3 mph - N/A   Clear
1:15 AM 55.4 °F - 41.9 °F 60% 29.95 in 10.0 mi SSE 18.4 mph - N/A   Clear
1:35 AM 54.5 °F - 39.6 °F 57% 29.96 in 10.0 mi SSE 18.4 mph - N/A   Clear
1:55 AM 54.1 °F - 36.1 °F 51% 29.96 in 10.0 mi SSE 18.4 mph - N/A   Clear
2:15 AM 54.0 °F - 33.1 °F 45% 29.96 in 10.0 mi SSE 19.6 mph 28.8 mph N/A   Clear
2:35 AM 52.7 °F - 32.2 °F 46% 29.96 in 10.0 mi SE 11.5 mph - N/A   Clear
2:55 AM 51.8 °F - 32.0 °F 47% 29.96 in 10.0 mi SSE 15.0 mph 19.6 mph N/A   Clear
3:15 AM 51.1 °F - 31.5 °F 47% 29.96 in 10.0 mi SSE 13.8 mph - N/A   Clear
3:35 AM 50.4 °F - 31.1 °F 48% 29.96 in 10.0 mi SSE 16.1 mph - N/A   Clear
3:55 AM 49.5 °F - 31.1 °F 49% 29.96 in 10.0 mi SSE 12.7 mph - N/A   Clear
4:15 AM 48.2 °F - 31.8 °F 53% 29.96 in 10.0 mi SSE 11.5 mph - N/A   Clear
4:35 AM 46.8 °F - 32.0 °F 57% 29.96 in 10.0 mi SSE 9.2 mph - N/A   Clear
4:55 AM 46.0 °F 43.1 °F 32.0 °F 58% 29.96 in 10.0 mi South 5.8 mph - N/A   Clear
5:15 AM 45.7 °F 44.4 °F 32.0 °F 59% 29.96 in 10.0 mi SW 3.5 mph - N/A   Clear
5:35 AM 45.1 °F - 32.0 °F 60% 29.96 in 10.0 mi Calm Calm - N/A   Clear
5:55 AM 45.1 °F - 32.0 °F 60% 29.97 in 10.0 mi Calm Calm - N/A   Clear
6:15 AM 42.6 °F 39.0 °F 32.0 °F 66% 29.97 in 10.0 mi SSW 5.8 mph - N/A   Clear
6:35 AM 41.9 °F 39.0 °F 32.2 °F 68% 29.98 in 10.0 mi SW 4.6 mph - N/A   Clear
6:55 AM 39.7 °F 34.3 °F 31.8 °F 73% 29.99 in 10.0 mi WNW 8.1 mph - N/A   Clear
7:15 AM 37.6 °F 35.1 °F 31.8 °F 80% 30.00 in 10.0 mi NW 3.5 mph - N/A   Clear
7:35 AM 38.7 °F 36.3 °F 32.0 °F 77% 30.02 in 10.0 mi North 3.5 mph - N/A   Clear
7:55 AM 41.9 °F - 33.8 °F 73% 30.02 in 10.0 mi Calm Calm - N/A   Clear
8:15 AM 44.2 °F - 34.0 °F 67% 30.02 in 10.0 mi Calm Calm - N/A   Scattered Clouds
8:35 AM 45.5 °F - 34.2 °F 65% 30.03 in 10.0 mi Calm Calm - N/A   Scattered Clouds
8:55 AM 50.0 °F - 34.7 °F 56% 30.03 in 10.0 mi North 3.5 mph - N/A   Clear
9:15 AM 52.3 °F - 35.2 °F 52% 30.03 in 10.0 mi NNE 3.5 mph - N/A   Clear
9:35 AM 55.6 °F - 35.6 °F 47% 30.04 in 10.0 mi NNE 5.8 mph - N/A   Clear
9:55 AM 58.5 °F - 36.0 °F 43% 30.04 in 10.0 mi North 9.2 mph - N/A   Clear
10:15 AM 59.2 °F - 38.3 °F 46% 30.05 in 10.0 mi North 10.4 mph - N/A   Clear
10:35 AM 60.4 °F - 37.6 °F 43% 30.05 in 10.0 mi North 11.5 mph - N/A   Clear
11:15 AM 65.8 °F - 29.1 °F 25% 30.07 in 10.0 mi NNE 15.0 mph 20.7 mph N/A   Clear
11:35 AM 68.5 °F - 23.4 °F 18% 30.07 in 10.0 mi NNE 19.6 mph 24.2 mph N/A   Clear
11:55 AM 70.3 °F - 22.3 °F 16% 30.08 in 10.0 mi NNE 17.3 mph 24.2 mph N/A   Clear
12:15 PM 72.0 °F - 18.7 °F 13% 30.08 in 10.0 mi NE 19.6 mph 24.2 mph N/A   Clear
12:35 PM 73.8 °F - 18.1 °F 12% 30.08 in 10.0 mi NNE 17.3 mph 24.2 mph N/A   Clear
12:55 PM 74.5 °F - 16.3 °F 11% 30.08 in 10.0 mi NE 18.4 mph 27.6 mph N/A   Clear
1:15 PM 76.1 °F - 13.8 °F 9% 30.07 in 10.0 mi NNE 20.7 mph 25.3 mph N/A   Clear
1:35 PM 75.7 °F - 11.1 °F 8% 30.07 in 10.0 mi NNE 17.3 mph 28.8 mph N/A   Clear
1:55 PM 77.0 °F - 11.1 °F 8% 30.07 in 10.0 mi NE 15.0 mph 26.5 mph N/A   Clear
2:15 PM 77.4 °F - 9.0 °F 7% 30.06 in 10.0 mi NNE 19.6 mph 25.3 mph N/A   Clear
2:35 PM 77.5 °F - 9.5 °F 7% 30.06 in 10.0 mi NNE 15.0 mph 23.0 mph N/A   Clear
2:55 PM 77.9 °F - 8.2 °F 7% 30.07 in 10.0 mi NNE 17.3 mph 21.9 mph N/A   Clear
3:15 PM 78.3 °F - 7.7 °F 7% 30.07 in 10.0 mi NNE 19.6 mph 29.9 mph N/A   Clear
3:35 PM 78.6 °F - 8.1 °F 7% 30.06 in 10.0 mi NE 11.5 mph 23.0 mph N/A   Clear
3:55 PM 77.5 °F - 5.5 °F 6% 30.07 in 10.0 mi NNE 20.7 mph 24.2 mph N/A   Clear
4:15 PM 75.4 °F - 5.0 °F 7% 30.06 in 10.0 mi ENE 10.4 mph 20.7 mph N/A   Clear
4:35 PM 77.5 °F - 5.4 °F 6% 30.07 in 10.0 mi NNE 18.4 mph 24.2 mph N/A   Clear
4:55 PM 77.5 °F - 5.7 °F 6% 30.07 in 10.0 mi NNE 13.8 mph 26.5 mph N/A   Clear
5:15 PM 77.5 °F - 5.9 °F 6% 30.07 in 10.0 mi NNE 18.4 mph 24.2 mph N/A   Clear
5:35 PM 77.2 °F - 5.5 °F 6% 30.07 in 10.0 mi NNE 13.8 mph 24.2 mph N/A   Clear
5:55 PM 76.6 °F - 6.3 °F 7% 30.07 in 10.0 mi North 15.0 mph - N/A   Clear
6:15 PM 74.7 °F - 5.2 °F 7% 30.08 in 10.0 mi NNE 18.4 mph - N/A   Clear
6:35 PM 75.4 °F - 6.1 °F 7% 30.08 in 10.0 mi NNE 13.8 mph - N/A   Clear
6:55 PM 72.7 °F - 5.9 °F 7% 30.09 in 10.0 mi NNE 13.8 mph 19.6 mph N/A   Clear
7:15 PM 73.2 °F - 7.7 °F 8% 30.09 in 10.0 mi NNE 15.0 mph - N/A   Clear
7:35 PM 72.0 °F - 9.3 °F 9% 30.10 in 10.0 mi NE 12.7 mph - N/A   Clear
7:55 PM 70.0 °F - 11.7 °F 11% 30.10 in 10.0 mi NE 9.2 mph - N/A   Clear
8:15 PM 66.9 °F - 15.1 °F 14% 30.11 in 10.0 mi NE 9.2 mph - N/A   Clear
8:35 PM 62.8 °F - 17.2 °F 17% 30.12 in 10.0 mi NE 6.9 mph - N/A   Clear
8:55 PM 59.4 °F - 18.3 °F 20% 30.13 in 10.0 mi NE 6.9 mph - N/A   Clear
9:15 PM 57.0 °F - 20.3 °F 24% 30.14 in 10.0 mi ENE 6.9 mph - N/A   Clear
9:35 PM 54.5 °F - 22.5 °F 29% 30.15 in 10.0 mi ENE 4.6 mph - N/A   Clear
9:55 PM 54.3 °F - 22.8 °F 29% 30.17 in 10.0 mi Calm Calm - N/A   Clear
10:15 PM 53.6 °F - 23.0 °F 30% 30.17 in 10.0 mi Calm Calm - N/A   Clear
10:35 PM 54.3 °F - 24.4 °F 31% 30.17 in 10.0 mi Calm Calm - N/A   Clear
10:55 PM 53.4 °F - 25.0 °F 33% 30.18 in 10.0 mi SE 3.5 mph - N/A   Clear
11:15 PM 51.1 °F - 27.0 °F 39% 30.18 in 10.0 mi Calm Calm - N/A   Clear
11:35 PM 48.9 °F - 28.6 °F 45% 30.18 in 10.0 mi SE 4.6 mph - N/A   Clear
11:55 PM 46.6 °F - 29.3 °F 51% 30.18 in 10.0 mi SE 6.9 mph - N/A   Clear